Creek Data

    Home     View Charts     View Raw Data     Messages

ID Distance Battery Voltage Battery Current Internal Temp Internal Humidity External Temp Solar Input rssi snr Time Stamp Record
65819 15.1 3.95 -5 52 51 54 0 -75 8 02/09/2026 08:30 PM 48620
65818 15.1 3.89 -5 52 51 54 0 -75 8 02/09/2026 08:15 PM 48619
65817 15.1 3.89 -5 53 51 54 0 -75 8 02/09/2026 08:00 PM 48618
65816 15.1 3.89 -5 54 51 55 0.1 -74 8 02/09/2026 07:45 PM 48617
65815 15.1 3.89 -5 54 51 56 0.1 -75 8 02/09/2026 07:30 PM 48616
65814 15.0 3.89 -5 54 52 56 0.1 -75 8 02/09/2026 07:15 PM 48615
65813 15.1 3.95 -5 54 52 55 0 -75 8 02/09/2026 06:45 PM 48613
65812 15.0 3.95 -5 55 52 56 0 -75 8 02/09/2026 06:30 PM 48612
65811 15.1 3.89 -5 55 53 56 0 -76 9 02/09/2026 06:15 PM 48611
65810 15.1 3.89 -5 56 53 57 0.1 -75 8 02/09/2026 06:00 PM 48610
65809 15.1 3.89 -5 57 53 58 1.7 -75 8 02/09/2026 05:45 PM 48609
65808 15.1 3.89 -10 58 53 58 4.2 -74 7 02/09/2026 05:30 PM 48608
65807 15.1 3.90 0 59 53 59 4.5 -74 7 02/09/2026 05:15 PM 48607
65806 15.1 3.92 0 60 53 59 4.6 -75 8 02/09/2026 05:00 PM 48606
65805 15.1 4.00 0 61 53 60 4.5 -75 8 02/09/2026 04:45 PM 48605
65804 15.1 3.99 0 62 53 61 4.5 -76 8 02/09/2026 04:30 PM 48604
65803 15.1 4.00 37 64 53 61 4.5 -75 8 02/09/2026 04:15 PM 48603
65802 15.1 3.95 5 65 52 62 5.1 -77 7 02/09/2026 04:00 PM 48602
65801 15.1 3.95 5 67 51 63 5.1 -75 8 02/09/2026 03:45 PM 48601
65800 15.1 3.95 0 68 50 64 5.1 -76 7 02/09/2026 03:30 PM 48600
65799 15.1 3.95 7 68 50 63 5.1 -75 8 02/09/2026 03:15 PM 48599
65798 15.2 3.94 0 69 49 64 5.1 -74 8 02/09/2026 03:00 PM 48598
65797 15.2 3.94 7 70 47 64 5.1 -74 8 02/09/2026 02:45 PM 48597
65796 15.2 3.94 6 69 46 62 5.1 -76 8 02/09/2026 02:30 PM 48596
65795 15.2 3.94 0 70 45 62 5.1 -76 8 02/09/2026 02:15 PM 48595